Regional Weather Roundup
Issued by NWS

Home | Current Version | Previous Version | Text Only | Print | Product List | Glossary Off
Versions: 1 2 3 4 5 6 7 8 9 10 11 12 13 14 15 16 17 18 19 20 21 22 23 24 25 26 27 28 29 30 31 32 33 34 35 36 37 38 39 40 41 42 43 44 45 46 47 48 49 50

000
ASUS43 KDTX 251110
RWRMI
MICHIGAN HOURLY REGIONAL WEATHER ROUNDUP
NATIONAL WEATHER SERVICE DETROIT/PONTIAC MI
700 AM EDT SUN SEP 25 2016

NOTE: "FAIR" INDICATES FEW OR NO CLOUDS BELOW 12,000 FEET WITH NO
SIGNIFICANT WEATHER AND/OR OBSTRUCTION TO VISIBILITY.

MIZ047>049-052>055-059>063-066>070-074>076-081>083-251200-
SOUTHEAST LOWER MICHIGAN

CITY           SKY/WX    TMP DP  RH WIND       PRES   REMARKS
ADRIAN         CLEAR     50  49  96 N3        30.21S
ALMA           CLEAR     45  45 100 W10       30.21R
ANN ARBOR      PTCLDY    50  47  89 CALM      30.20R
BAD AXE        CLEAR     40  40  98 CALM      30.23S
CARO           CLEAR     41  41  97 CALM      30.21S
DETROIT CITY   CLEAR     52  49  89 CALM      30.20S
DETROIT        PTCLDY    51  48  89 NE5       30.20F
FLINT          CLEAR     45  44  97 E5        30.21S
GROSSE ILE     CLEAR     56  48  75 E5        30.19S
HILLSDALE      CLEAR     52  46  82 SE5       30.18S
HOWELL         CLEAR     49  47  93 CALM      30.20S

CITY           SKY/WX    TMP DP  RH WIND       PRES   REMARKS
JACKSON        CLEAR     51  48  89 SE5       30.19S
LAMBERTVILLE   CLEAR     50  48  95 CALM      30.20S
LANSING        CLEAR     50  45  83 CALM      30.20S
LAPEER         FAIR      41  41  99 CALM      30.22S
MASON          CLEAR     50  47  90 CALM      30.19S
MONROE         PTCLDY    50  50  97 CALM      30.19S
MT. CLEMENS    CLEAR     47  44  91 NE5       30.19S
PONTIAC        PTCLDY    48  44  86 NE5       30.20S
PORT HOPE        N/A     51  46  83 S5        30.21S
PORT HURON     CLEAR     41  41 100 CALM      30.23R
TRI CITIES     CLEAR     48  45  89 E5        30.21F
MIDLAND        FAIR      42  42 100 CALM      30.21R
TROY           CLEAR     52  46  80 CALM      30.22S
SAGINAW HB     CLEAR     43  41  93 NE3       30.21S
$$
MIZ043>046-050>051-056>058-064>065-071>073-077>080-251200-
SOUTHWEST LOWER MICHIGAN

CITY           SKY/WX    TMP DP  RH WIND       PRES   REMARKS
BATTLE CREEK   CLEAR     55  51  86 SE6       30.18S
BENTON HARBOR  CLOUDY    61  53  75 SE9       30.14S
BIG RAPIDS     CLEAR     48  46  95 CALM      30.19S
COLDWATER      CLEAR     54  51  90 SE5       30.18S
FREMONT        FAIR      52  47  82 E5        30.17S
HOLLAND        MOCLDY    55  53  93 E7        30.16S
GRAND RAPIDS   PTCLDY    51  47  86 E5        30.18S
IONIA          FAIR      47  46  94 CALM      30.19S
KALAMAZOO      CLEAR     55  51  86 CALM      30.18S
LUDINGTON      CLOUDY    54  48  80 E7        30.15S
MARSHALL       CLEAR     51  50  97 CALM      30.18S
MOUNT PLEASANT CLEAR     46  45  97 CALM      30.20S
MUSKEGON       MOCLDY    55  51  86 SE7       30.16S
SOUTH HAVEN    CLOUDY    61  56  85 SE6       30.14F
$$
MIZ016>042-251200-
NORTHERN LOWER MICHIGAN

CITY           SKY/WX    TMP DP  RH WIND       PRES   REMARKS
ALPENA         CLEAR     40  36  86 CALM      30.23R
BEAVER ISLAND  CLEAR     54  50  85 SE3       30.18S
BELLAIRE       CLEAR     46  44  95 CALM      30.20S
CADILLAC       MOCLDY    52  45  78 SE6       30.19S
CHARLEVOIX     CLEAR     50  45  84 SE6       30.22R
FRANKFORT      CLOUDY    57  45  62 SE8       30.16S
GAYLORD        CLEAR     48  42  80 SE7       30.20F
GRAYLING       CLOUDY    36  35  96 CALM      30.22S
HARBOR SPRINGS CLEAR     44  42  93 NE3       30.20S
HOUGHTON LAKE  CLOUDY    39  38  96 NE3       30.22R
MANISTEE       CLOUDY    51  47  86 E8        30.16
OSCODA         MOCLDY    41  40  95 CALM      30.22S
PELLSTON       CLEAR     38  36  92 CALM      30.21S
ROGERS CITY    CLEAR     51  45  79 S5        30.23S
TRAVERSE CITY  MOCLDY    54  46  74 VRB5      30.18R
$$
MIZ007>008-015-251200-
EASTERN UPPER MICHIGAN

CITY           SKY/WX    TMP DP  RH WIND       PRES   REMARKS
KINROSS        CLOUDY    50  47  89 SE5       30.21S
MACKINAC ISLAN CLEAR     55  47  75 S9        30.20S
NEWBERRY       CLEAR     47  46  97 SE5       30.17F
S. S. MARIE    CLOUDY    52  49  89 E3        30.21S
MUNISING         N/A     53  51  93 S6        30.12S
$$
MIZ004>006-011>014-085-251200-
CENTRAL UPPER MICHIGAN

CITY           SKY/WX    TMP DP  RH WIND       PRES   REMARKS
MANISTIQUE     PTCLDY    60  54  80 S10G16    30.15S
ESCANABA       CLOUDY    63  57  81 S9        30.12F
MENOMINEE      CLOUDY    63  57  81 S8        30.11F
SAWYER-GWINN   CLOUDY    54  52  94 S8        30.12S
$$
MIZ001>003-009>011-084-251200-
WESTERN UPPER MICHIGAN

CITY           SKY/WX    TMP DP  RH WIND       PRES   REMARKS
IRON MOUNTAIN  CLOUDY    58  53  84 SE8       30.09F
HOUGHTON       CLOUDY    57  51  80 SE9       30.04F
COPPER HARBOR    N/A     61  55  81 SW5       30.04F
IRONWOOD       CLOUDY    61  57  87 SE10G16   29.98F
$$

ABBREVIATIONS USED IN REMARKS
   TC - TEMPERATURE IN CELSIUS
  WCI - WIND CHILL INDEX
   HX - HEAT INDEX
  VSB - VISIBILITY





USA.gov is the U.S. government's official web portal to all federal, state and local government web resources and services.